Location: Dehesa de la Cepeda
(40.6574°N, 4.3013°W)
Time: 13:08:59
(UTC+00:00)

Explorer 7 - Pass Details

Date: 07 August 2021
Orbit: 484 x 676 km, 50.3° (Epoch: 27 September)

Event Time Altitude Azimuth Distance (km) Brightness Sun altitude
Exits shadow 03:59:15 17° 278° (W) 1,314 8.3 -14.1°
Maximum altitude 04:01:43 35° 337° (NNW) 812 7.8 -13.7°
Drops below altitude 10° 04:05:16 10° 45° (NE) 1,706 10.7 -13.2°
Sets 04:07:38 0° 54° (NE) 2,616 12.4 -12.8°
